AirNav   Duncan Aviation - Near you to keep you flying
 
 1711 users online  

CA07 Scheidel Ranch Airport
Pleasant Grove, California, USA

GOING TO PLEASANT GROVE?


FAA INFORMATION EFFECTIVE 04 NOVEMBER 2021

Location

FAA Identifier: CA07
Lat/Long: 38-50-24.6360N 121-33-41.8540W
38-50.410600N 121-33.697567W
38.8401767,-121.5616261
(estimated)
Elevation: 28 ft. / 9 m (estimated)
Variation: 16E (1985)
From city: 4 miles W of PLEASANT GROVE, CA
Time zone: UTC -7 (UTC -8 during Standard Time)
Zip code: 95668

Airport Operations

Airport use: Private use. Permission required prior to landing
Activation date: 05/1988
Control tower: no
ARTCC: OAKLAND CENTER
FSS: RANCHO MURIETA FLIGHT SERVICE STATION
Attendance: UNATNDD
Wind indicator: yes
Segmented circle: no

Airport Communications

WX ASOS at SMF (9 nm S): PHONE 916-649-3996
WX AWOS-3 at LHM (11 nm NE): 124.25 (916-645-0698)
WX AWOS-3 at MCC (13 nm SE): 125.975 (916-641-1272)
WX ASOS at MYV (15 nm N): 118.475 (530-742-0695)
WX ASOS at SAC (20 nm S): PHONE 916-421-0923

Nearby radio navigation aids

VOR radial/distance  VOR name  Freq  Var
MCCr308/12.7MC CLELLAN VOR/DME109.2017E
MYVr162/15.5MARYSVILLE VOR/DME110.8016E
SACr342/23.8SACRAMENTO VORTAC115.2017E
ILAr105/25.8WILLIAMS VORTAC114.4018E
HNWr263/38.6HANGTOWN VOR/DME115.5017E

Airport Services

Runway Information

Runway 14/32

Dimensions: 2100 x 35 ft. / 640 x 11 m
Surface: asphalt/turf
RUNWAY 14  RUNWAY 32
Traffic pattern: leftleft
Obstructions: none40 ft. pline, marked

Airport Ownership and Management from official FAA records

Ownership: Privately-owned
Owner: JACK SCHEIDEL
1510 W. CATLETT RD
PLEASANT GROVE, CA 95668
Phone (916) 655-3419
Manager: BRETT SCHEIDEL
1510 W. CATLETT RD
PLEASANT GROVE, CA 95668
Phone (916) 665-3419

Airport Operational Statistics

Aircraft based on the field: 4
Single engine airplanes: 4
    

Additional Remarks

FOR CD CTC NORCAL APCH AT 916-361-6874.

Instrument Procedures

There are no published instrument procedures at CA07.

Some nearby airports with instrument procedures:

KSMF - Sacramento International Airport (9 nm S)
KLHM - Lincoln Regional Airport/Karl Harder Field (11 nm NE)
KMCC - Mc Clellan Airfield (13 nm SE)
KMYV - Yuba County Airport (15 nm N)
O41 - Watts-Woodland Airport (18 nm SW)
KBAB - Beale Air Force Base (19 nm N)
KSAC - Sacramento Executive Airport (20 nm S)
 
Loc | Ops | Rwys | IFR | FBO | Links
Com | Nav | Svcs | Stats | Notes
Area around CA07 (Scheidel Ranch Airport)
 
Road maps at: MapQuest Bing Google
 
Aerial photo
No photo
 
Sectional chart

 
Airport distance calculator
Flying to Scheidel Ranch Airport? Find the distance to fly.

From to CA07

Sunrise and sunset
Times for 30-Nov-2021
 Local
(UTC-8)
 Zulu
(UTC)
Morning civil twilight06:3614:36
Sunrise07:0615:06
Sunset16:4400:44
Evening civil twilight17:1301:13

Current date and time
Zulu (UTC)  30-Nov-2021 18:55:34
Local (UTC-8)  30-Nov-2021 10:55:34
 
METAR
KSMF 
9nm S 
301753Z 34004KT 2SM BR BCFG SCT004 BKN200 10/09 A3019 RMK AO2 SFC VIS 5 SLP224 VIS SW-N 1 T01000089 10100 20028 51016
KLHM 
11nm NE 
301835Z AUTO 00000KT 10SM CLR 13/08 A3018 RMK AO1
KMCC 
13nm SE 
301835Z AUTO 00000KT 8SM CLR 14/11 A3018 RMK AO2
KMYV 
16nm N 
301753Z AUTO 00000KT 10SM CLR 13/08 A3019 RMK AO2 SLP228 T01330078 10133 20039 $
KBAB 
19nm N 
301758Z AUTO 00000KT 10SM CLR 13/08 A3018 RMK AO2 SLP223 T01300079 10130 20046 50012 $
TAF
KSMF 
9nm S 
301720Z 3018/0118 VRB05KT 5SM BR FEW005 FM301830 34008KT P6SM SCT250 FM010600 VRB05KT 4SM BR SKC
KMCC 
13nm SE 
301720Z 3018/0118 33007KT P6SM SCT250 FM010800 VRB03KT 5SM BR SKC
KBAB 
19nm N 
301100Z 3011/0117 VRB06KT 9999 FEW250 QNH3012INS BECMG 3016/3017 32006KT 9999 FEW250 QNH3009INS BECMG 0101/0102 VRB06KT 9999 SKC QNH3009INS TX18/3022Z TN06/3013Z
NOTAMs
Click for the latest NOTAMs
NOTAMs are issued by the DoD/FAA and will open in a separate window not controlled by AirNav.

 

 
 

Would you like to see your business listed on this page?

 If your business provides an interesting product or service to pilots, flight crews, aircraft, or users of the Scheidel Ranch Airport, you should consider listing it here.  To start the listing process, click on the button below
 
Add a business
 

Other Pages about Scheidel Ranch Airport

Update a link
 
Copyright © AirNav, LLC. All rights reserved. Privacy Policy  Contact